W1JCN Weather Reports


Display with metric or nautical units.
time (UTC)temp
F
wind
direction
speed
MPH
gust
MPH
rain 1hr
in
rain 24hr
in
rain mn
in
humidity
%
barometer
mb
20260906053523 56 0 0.0 0.0 0.00 0.05 0.01 94 1012.3
20260906052623 56 0 0.0 0.0 0.00 0.05 0.01 94 1012.3
20260906051723 56 0 0.0 0.0 0.01 0.05 0.01 94 1012.2
20260906050824 56 0 0.0 0.0 0.01 0.05 0.01 93 1012.3
20260906045923 56 0 0.0 0.0 0.01 0.05 0.01 93 1012.4
20260906045024 56 0 0.0 0.0 0.01 0.05 0.01 93 1012.4
20260906044124 56 0 0.0 0.0 0.01 0.05 0.01 93 1012.4
20260906041423 56 0 0.0 0.0 0.01 0.04 0.00 93 1012.4
20260906040523 56 0 0.0 0.0 0.02 0.04 0.00 93 1012.4
20260906035623 56 0 0.0 0.0 0.02 0.04 0.04 93 1012.4
20260906034723 56 0 0.0 0.0 0.02 0.04 0.04 93 1012.3
20260906033823 56 0 0.0 0.0 0.02 0.04 0.04 93 1012.3
20260906032923 56 0 0.0 0.0 0.02 0.04 0.04 93 1012.2
20260906032023 57 0 0.0 0.0 0.02 0.03 0.03 93 1012.1
20260906031123 57 0 0.0 0.0 0.02 0.03 0.03 93 1012.1
20260906030223 57 0 0.0 0.0 0.02 0.02 0.02 92 1011.9
20260906025323 57 0 0.0 0.0 0.02 0.02 0.02 93 1011.9
20260906024423 57 0 0.0 0.0 0.02 0.02 0.02 92 1011.9
20260906023523 58 0 0.0 0.0 0.02 0.02 0.02 92 1011.9
20260906021723 58 234 0.0 3.0 0.01 0.01 0.01 92 1011.9
20260906015923 59 253 0.0 2.0 0.00 0.00 0.00 91 1011.9
20260906015023 59 276 0.0 1.0 0.00 0.00 0.00 91 1012.0
20260906014123 59 274 0.0 1.0 0.00 0.00 0.00 90 1011.9
20260906012323 59 272 0.0 4.0 0.00 0.00 0.00 89 1011.9
20260906010523 60 271 0.0 4.0 0.00 0.00 0.00 88 1011.9
20260906005623 60 271 0.0 4.0 0.00 0.00 0.00 88 1011.7
20260906004723 60 271 0.0 4.0 0.00 0.00 0.00 87 1011.7
20260906002923 62 279 0.0 4.0 0.00 0.00 0.00 86 1011.5
20260906002023 62 294 0.0 4.0 0.00 0.00 0.00 86 1011.4
20260906001123 63 296 1.0 7.0 0.00 0.00 0.00 85 1011.5
20260906000223 63 288 1.0 9.0 0.00 0.00 0.00 84 1011.2
20260905235323 64 305 1.0 6.0 0.00 0.00 0.00 84 1011.0
20260905234423 64 319 1.0 6.0 0.00 0.00 0.00 82 1010.8
20260905233523 64 315 0.0 4.0 0.00 0.00 0.00 82 1010.7
20260905232623 65 312 0.0 3.0 0.00 0.00 0.00 82 1010.8
20260905230823 65 0 0.0 0.0 0.00 0.00 0.00 81 1010.5
20260905225923 66 0 0.0 0.0 0.00 0.00 0.00 79 1010.6
20260905225023 66 313 0.0 2.0 0.00 0.00 0.00 78 1010.6
20260905224123 66 313 0.0 4.0 0.00 0.00 0.00 77 1010.5
20260905223222 67 313 0.0 3.0 0.00 0.00 0.00 77 1010.3
20260905222323 67 312 0.0 4.0 0.00 0.00 0.00 76 1010.2
20260905221422 68 311 1.0 8.0 0.00 0.00 0.00 74 1010.2
20260905220523 68 346 2.0 8.0 0.00 0.00 0.00 72 1010.3
20260905215623 68 316 2.0 10.0 0.00 0.00 0.00 75 1010.2
20260905214723 68 306 2.0 10.0 0.00 0.00 0.00 73 1010.0
20260905213823 68 317 2.0 9.0 0.00 0.00 0.00 73 1010.0
20260905212923 68 320 2.0 6.0 0.00 0.00 0.00 75 1009.8
20260905212022 68 309 2.0 9.0 0.00 0.00 0.00 73 1009.7
20260905211122 68 299 1.0 6.0 0.00 0.00 0.00 73 1009.7
20260905210223 68 309 1.0 8.0 0.00 0.00 0.00 72 1009.6
20260905205322 68 323 2.0 8.0 0.00 0.00 0.00 69 1009.6
20260905204422 69 309 2.0 8.0 0.00 0.00 0.00 71 1009.5
20260905203522 69 316 1.0 7.0 0.00 0.00 0.00 71 1009.4
20260905202623 69 270 1.0 5.0 0.00 0.00 0.00 71 1009.5
20260905201722 70 319 2.0 9.0 0.00 0.00 0.00 69 1009.4
20260905200822 70 333 1.0 8.0 0.00 0.00 0.00 70 1009.4
20260905195922 70 314 1.0 9.0 0.00 0.00 0.00 68 1009.5
20260905195022 70 319 2.0 9.0 0.00 0.00 0.00 69 1009.4
20260905194122 71 301 1.0 9.0 0.00 0.00 0.00 70 1009.3
20260905193222 71 322 2.0 11.0 0.00 0.00 0.00 70 1009.4
20260905192322 71 318 1.0 5.0 0.00 0.00 0.00 68 1009.3
20260905191422 71 304 2.0 7.0 0.00 0.00 0.00 67 1009.2
20260905190522 71 317 3.0 14.0 0.00 0.00 0.00 66 1009.2
20260905185622 71 303 3.0 12.0 0.00 0.00 0.00 68 1009.3
20260905184722 71 308 1.0 7.0 0.00 0.00 0.00 70 1009.3
20260905183822 70 328 1.0 9.0 0.00 0.00 0.00 69 1009.3
20260905182922 70 328 2.0 15.0 0.00 0.00 0.00 69 1009.2
20260905182022 71 324 3.0 15.0 0.00 0.00 0.00 68 1009.3
20260905181122 71 295 2.0 7.0 0.00 0.00 0.00 72 1009.2
20260905175322 71 313 2.0 10.0 0.00 0.00 0.00 69 1009.2
20260905174422 71 321 1.0 9.0 0.00 0.00 0.00 71 1009.2
20260905173522 70 313 1.0 8.0 0.00 0.00 0.00 71 1009.3
20260905172622 70 310 1.0 12.0 0.00 0.00 0.00 74 1009.4
20260905171722 69 303 1.0 8.0 0.00 0.00 0.00 76 1009.2
20260905170822 68 312 0.0 4.0 0.00 0.00 0.00 78 1009.2
20260905165922 68 308 1.0 7.0 0.00 0.00 0.00 75 1009.3
20260905165022 69 317 1.0 6.0 0.00 0.00 0.00 75 1009.3
20260905164122 70 307 1.0 8.0 0.00 0.00 0.00 74 1009.4
20260905163222 69 312 1.0 8.0 0.00 0.00 0.00 75 1009.4
20260905162322 68 320 1.0 9.0 0.00 0.00 0.00 74 1009.5
20260905161422 69 304 1.0 10.0 0.00 0.00 0.00 75 1009.4
20260905155622 69 313 2.0 8.0 0.00 0.00 0.00 73 1009.5
20260905154722 70 310 2.0 12.0 0.00 0.00 0.00 76 1009.6
20260905153822 69 306 2.0 12.0 0.00 0.00 0.00 76 1009.6
20260905152922 69 325 2.0 9.0 0.00 0.00 0.00 76 1009.6
20260905152022 69 311 2.0 12.0 0.00 0.00 0.00 73 1009.5
20260905151122 69 336 1.0 6.0 0.00 0.00 0.00 75 1009.6
20260905150222 68 319 1.0 5.0 0.00 0.00 0.00 77 1009.6
20260905145322 67 334 1.0 8.0 0.00 0.00 0.00 79 1009.5
20260905143522 65 292 1.0 5.0 0.00 0.00 0.00 84 1009.6
20260905141722 64 305 2.0 6.0 0.00 0.00 0.00 84 1009.8
20260905135922 63 296 1.0 6.0 0.00 0.00 0.00 86 1009.7
20260905135022 63 295 1.0 5.0 0.00 0.00 0.00 88 1009.7
20260905134122 62 324 1.0 9.0 0.00 0.00 0.00 89 1009.7
20260905133222 62 327 2.0 11.0 0.00 0.00 0.00 90 1009.6
20260905132322 61 329 1.0 8.0 0.00 0.00 0.00 91 1009.4
20260905131422 61 321 1.0 8.0 0.00 0.00 0.00 92 1009.4
20260905130522 60 312 1.0 6.0 0.00 0.00 0.00 93 1009.5
20260905125621 60 314 1.0 5.0 0.00 0.00 0.00 93 1009.3
20260905124722 60 315 1.0 5.0 0.00 0.00 0.00 93 1009.3
20260905122022 59 321 0.0 2.0 0.00 0.00 0.00 94 1009.2
20260905121121 59 320 0.0 1.0 0.00 0.00 0.00 94 1009.2
20260905120221 59 322 0.0 3.0 0.00 0.00 0.00 94 1009.2
20260905115321 59 306 0.0 5.0 0.00 0.00 0.00 94 1009.1
20260905114421 58 319 0.0 3.0 0.00 0.00 0.00 94 1009.2
20260905113521 58 315 1.0 8.0 0.00 0.00 0.00 94 1009.1
20260905111722 58 291 0.0 4.0 0.00 0.00 0.00 95 1008.9
20260905110821 57 289 0.0 3.0 0.00 0.00 0.00 95 1008.7
20260905104121 56 286 0.0 3.0 0.00 0.00 0.00 94 1008.5
20260905103221 55 292 0.0 4.0 0.00 0.00 0.00 94 1008.4
20260905102321 55 297 0.0 4.0 0.00 0.00 0.00 94 1008.5
20260905101421 54 303 0.0 3.0 0.00 0.00 0.00 94 1008.4
20260905100521 54 315 0.0 3.0 0.00 0.00 0.00 94 1008.3
20260905095621 54 0 0.0 0.0 0.00 0.00 0.00 94 1008.3
20260905094721 54 0 0.0 0.0 0.00 0.00 0.00 94 1008.2
20260905092921 54 314 0.0 1.0 0.00 0.00 0.00 94 1008.1
20260905091121 54 314 0.0 1.0 0.00 0.00 0.00 93 1008.0
20260905090221 54 0 0.0 0.0 0.00 0.00 0.00 93 1007.9
20260905085321 54 0 0.0 0.0 0.00 0.00 0.00 93 1008.1
20260905084421 54 0 0.0 0.0 0.00 0.00 0.00 93 1008.1
20260905083521 54 0 0.0 0.0 0.00 0.00 0.00 93 1008.1
20260905082621 54 0 0.0 0.0 0.00 0.00 0.00 93 1008.1
20260905081721 54 0 0.0 0.0 0.00 0.00 0.00 93 1008.1
20260905080821 54 0 0.0 0.0 0.00 0.00 0.00 93 1008.1
20260905075921 54 0 0.0 0.0 0.00 0.00 0.00 93 1008.1
20260905075021 54 0 0.0 0.0 0.00 0.00 0.00 93 1008.1
20260905074121 54 0 0.0 0.0 0.00 0.00 0.00 92 1008.1
20260905073221 54 0 0.0 0.0 0.00 0.00 0.00 93 1008.2
20260905072321 54 0 0.0 0.0 0.00 0.00 0.00 93 1008.3
20260905070521 55 0 0.0 0.0 0.00 0.00 0.00 92 1008.4
20260905065621 55 0 0.0 0.0 0.00 0.00 0.00 91 1008.5
20260905064721 55 0 0.0 0.0 0.00 0.00 0.00 91 1008.6
20260905062921 56 0 0.0 0.0 0.00 0.00 0.00 91 1008.7
20260905062021 56 0 0.0 0.0 0.00 0.00 0.00 91 1008.7
20260905060221 57 0 0.0 0.0 0.00 0.00 0.00 90 1008.8
20260905055321 58 0 0.0 0.0 0.00 0.00 0.00 90 1008.9